Regional Weather Roundup
Issued by NWS

Home | Current Version | Previous Version | Graphics & Text | Print | Product List | Glossary On
Versions: 1 2 3 4 5 6 7 8 9 10 11 12 13 14 15 16 17 18 19 20 21 22 23 24 25 26 27 28 29 30 31 32 33 34 35 36 37 38 39 40 41 42 43 44 45 46 47 48 49 50
000
ASUS43 KMKX 230011
RWRWI

WISCONSIN REGIONAL WEATHER ROUNDUP
NATIONAL WEATHER SERVICE MILWAUKEE/SULLIVAN WI
700 PM CDT SUN OCT 22 2017

NOTE: "FAIR" INDICATES FEW OR NO CLOUDS BELOW 12,000 FEET WITH NO
SIGNIFICANT WEATHER AND/OR OBSTRUCTIONS TO VISIBILITY.

WIZ001-002-006>008-014>016-023>028-230100-
NORTHWEST WISCONSIN

CITY           SKY/WX    TMP DP  RH WIND       PRES   REMARKS
SUPERIOR ARPT  CLEAR     50  32  50 S6        29.87S
6HR MIN TEMP:  50; 6HR MAX TEMP:  62;

ASHLAND        CLEAR     49  34  56 S6        29.91R
6HR MIN TEMP:  49; 6HR MAX TEMP:  60;

HAYWARD        CLEAR     47  34  60 S3        29.93R
6HR MIN TEMP:  47; 6HR MAX TEMP:  59;

SIREN          CLEAR     52  32  46 S5        29.92S
6HR MIN TEMP:  52; 6HR MAX TEMP:  61;

CUMBERLAND     CLEAR     46  32  57 S5        29.95R
RICE LAKE      CLEAR     51  34  52 S5        29.97R
6HR MIN TEMP:  51; 6HR MAX TEMP:  60;

CHETEK         CLEAR     47  36  63 CALM      29.96R
6HR MIN TEMP:  47; 6HR MAX TEMP:  60;

LADYSMITH      PTCLDY    50  40  67 S7        29.98R
6HR MIN TEMP:  50; 6HR MAX TEMP:  57;

EAU CLAIRE     CLOUDY    49  36  61 CALM      29.97R
6HR MIN TEMP:  49; 6HR MAX TEMP:  60;

MENOMONIE      CLEAR     49  36  62 S5        29.97R
6HR MIN TEMP:  49; 6HR MAX TEMP:  61;

NEW RICHMOND   CLEAR     53  30  42 S5        29.95R
6HR MIN TEMP:  53; 6HR MAX TEMP:  62;

OSCEOLA        CLEAR     49  34  56 SE7       29.96S
6HR MIN TEMP:  49; 6HR MAX TEMP:  63;

$$

WIZ003>005-009-010-017-018-230100-
NORTH CENTRAL WISCONSIN

CITY           SKY/WX    TMP DP  RH WIND       PRES   REMARKS
MANITOWISH WTR CLOUDY    44  42  92 S6        29.96R
6HR MIN TEMP:  44; 6HR MAX TEMP:  49;

ARBOR VITAE    CLOUDY    46  41  83 S3        29.96R
6HR MIN TEMP:  46; 6HR MAX TEMP:  52;

WOODRUFF       CLOUDY    46  41  83 S3        29.96R
6HR MIN TEMP:  46; 6HR MAX TEMP:  52;

RHINELANDER    CLOUDY    46  42  86 SW6       29.99R
6HR MIN TEMP:  46; 6HR MAX TEMP:  50;

EAGLE RIVER    NOT AVBL
LAND O LAKES   MOCLDY    45  41  85 CALM      29.98R
6HR MIN TEMP:  45; 6HR MAX TEMP:  49;

PHILLIPS       CLEAR     46  40  81 S3        29.96R
6HR MIN TEMP:  46; 6HR MAX TEMP:  51;

TOMAHAWK       MOCLDY    43  40  91 CALM      30.00R
6HR MIN TEMP:  42; 6HR MAX TEMP:  49;

MEDFORD        MOCLDY    44  40  88 S5        29.99R
6HR MIN TEMP:  44; 6HR MAX TEMP:  50;

MERRILL        CLOUDY    47  43  85 S3        30.00R
6HR MIN TEMP:  47; 6HR MAX TEMP:  51;

$$

WIZ029-030-035-036-043>047-230100-
CENTRAL WISCONSIN

CITY           SKY/WX    TMP DP  RH WIND       PRES   REMARKS
WAUSAU         CLOUDY    48  43  82 SW6       30.00R
6HR MIN TEMP:  48; 6HR MAX TEMP:  51; 6HR PCP: TRACE;

MOSINEE        MOCLDY    46  45  93 SW7       30.02R
MARSHFIELD     CLOUDY    47  42  83 S6        30.00R
6HR MIN TEMP:  47; 6HR MAX TEMP:  51;

STEVENS POINT  CLOUDY    47  47 100 S6        30.03R
6HR MIN TEMP:  46; 6HR MAX TEMP:  48; 6HR PCP:  0.02;

WAUPACA        CLOUDY    51  49  95 S3        30.03R
6HR MIN TEMP:  51; 6HR MAX TEMP:  54; 6HR PCP:  0.04;

WAUTOMA        CLOUDY   N/A N/A N/A S5        30.05R
WISC RAPIDS    CLOUDY    49  47  93 S5        30.03R
6HR MIN TEMP:  48; 6HR MAX TEMP:  51; 6HR PCP:  0.01;

CAMP DOUGLAS   NOT AVBL
$$

WIZ011>013-019>022-031-037>040-048>050-230100-
NORTHEAST WISCONSIN

CITY           SKY/WX    TMP DP  RH WIND       PRES   REMARKS
ANTIGO         CLOUDY    45  44  98 SW6       30.01R
6HR MIN TEMP:  45; 6HR MAX TEMP:  48;

SHAWANO        CLOUDY    51  49  92 CALM      30.01S
6HR MIN TEMP:  51; 6HR MAX TEMP:  53; 6HR PCP:  0.05;

OCONTO         CLOUDY    49  47  95 CALM      30.01S
6HR MIN TEMP:  49; 6HR MAX TEMP:  51; 6HR PCP:  0.11;

STURGEON BAY   LGT RAIN  51  50  96 SW5       30.02R
6HR MIN TEMP:  51; 6HR MAX TEMP:  52; 6HR PCP:  0.13;

GREEN BAY      LGT RAIN  50  50 100 S3        30.03R
6HR MIN TEMP:  50; 6HR MAX TEMP:  53; 6HR PCP:  0.13;

MANITOWOC      LGT RAIN  51  50  96 W5        30.05R
6HR MIN TEMP:  51; 6HR MAX TEMP:  53; 6HR PCP:  0.23;

APPLETON       DRIZZLE   48  48 100 CALM      30.02R
CLINTONVILLE   NOT AVBL
OSHKOSH        CLOUDY    50  48  93 CALM      30.04R
6HR MIN TEMP:  50; 6HR MAX TEMP:  52; 6HR PCP:  0.14;

$$

WIZ032>034-041-042-053>061-230100-
SOUTHWEST WISCONSIN

CITY           SKY/WX    TMP DP  RH WIND       PRES   REMARKS
LA CROSSE      CLOUDY    53  45  74 S8        30.02R
6HR MIN TEMP:  53; 6HR MAX TEMP:  57;

SPARTA         CLOUDY    47  45  93 CALM      30.03S
6HR MIN TEMP:  47; 6HR MAX TEMP:  53;

VIROQUA        CLOUDY    48  46  91 S6        30.04S
6HR MIN TEMP:  48; 6HR MAX TEMP:  52;

BOSCOBEL       CLOUDY    51  47  86 CALM      30.06R
6HR MIN TEMP:  51; 6HR MAX TEMP:  55; 6HR PCP:  0.01;

PRAIRIE DU CHI CLOUDY    50  45  83 CALM      30.05S
6HR MIN TEMP:  50; 6HR MAX TEMP:  55;

PLATTEVILLE    CLOUDY    50  50 100 CALM      30.06S
6HR MIN TEMP:  50; 6HR MAX TEMP:  53;

$$

WIZ056-057-062-063-064-067-068-230100-
SOUTH CENTRAL WISCONSIN

CITY           SKY/WX    TMP DP  RH WIND       PRES   REMARKS
REEDSBURG      CLOUDY    49  49 100 S3        30.04S
6HR MIN TEMP:  48; 6HR MAX TEMP:  51; 6HR PCP:  0.02;

BARABOO/DELLS  CLOUDY    48  46  93 SW3       30.05R
6HR MIN TEMP:  48; 6HR MAX TEMP:  50; 6HR PCP:  0.03;

LONE ROCK      CLOUDY    50  50 100 CALM      30.06R
6HR MIN TEMP:  50; 6HR MAX TEMP:  53; 6HR PCP:  0.02;

MINERAL POINT  CLOUDY    50  50 100 CALM      30.06S
MADISON        CLOUDY    50  47  89 CALM      30.06R
6HR MIN TEMP:  49; 6HR MAX TEMP:  52; 6HR PCP:  0.04;

MIDDLETON      CLOUDY    50  49  98 CALM      30.06R
6HR MIN TEMP:  50; 6HR MAX TEMP:  53; 6HR PCP:  0.06;

WATERTOWN      CLOUDY    49  49 100 W3        30.05R
6HR MIN TEMP:  49; 6HR MAX TEMP:  51; 6HR PCP:  0.10;

MONROE         CLOUDY    48  43  81 CALM      30.06R
JANESVILLE     MOCLDY    50  50 100 CALM      30.05S
$$

WIZ051-052-058>065-066-070>072-230100-
SOUTHEAST WISCONSIN

CITY           SKY/WX    TMP DP  RH WIND       PRES   REMARKS
MILWAUKEE      RAIN      52  50  93 CALM      30.06R FOG
6HR MIN TEMP:  52; 6HR MAX TEMP:  66; 6HR PCP:  0.30;

WAUKESHA       CLOUDY    48  46  93 NW2       30.06R
MILWAUKEE/TIMM LGT RAIN  50  46  87 CALM      30.06R
RACINE         LGT RAIN  51  50  96 N5        30.07R
6HR MIN TEMP:  50; 6HR MAX TEMP:  64; 6HR PCP:  0.52;

BURLINGTON     LGT RAIN  49  49 100 CALM      30.05S
6HR MIN TEMP:  49; 6HR MAX TEMP:  52;

KENOSHA        LGT RAIN  51  48  89 N6        30.06R
6HR MIN TEMP:  51; 6HR MAX TEMP:  67; 6HR PCP:  0.45;

FOND DU LAC    CLOUDY    51  47  86 W3        30.05R
6HR MIN TEMP:  50; 6HR MAX TEMP:  53; 6HR PCP:  0.19;

SHEBOYGAN      LGT RAIN  50  50 100 CALM      30.04R
6HR MIN TEMP:  50; 6HR MAX TEMP:  52; 6HR PCP:  0.21;

WEST BEND      LGT RAIN  46  46 100 CALM      30.05R
JUNEAU         DRIZZLE   48  47  95 CALM      30.06R
6HR MIN TEMP:  48; 6HR MAX TEMP:  50; 6HR PCP:  0.17;

$$

LSZ147-162-230100-
LAKE SUPERIOR

STATION/POSITION TIME  TEMP    WIND        PRES    WAVE
                       AIR SEA DIR/SP/G            HT/PER
                 (UTC) (F)     (DEG/KT/KT) (MB)    (FT/S)
W MID LAKE BUOY  2250   53 52              1011.2R   4/ 6
DEVILS ISLAND    0000   56     200/  8/ 10 1012.3R
PORT WING        2340          180/  4/  5 1012.2R
SAXON HARBOR     2330   52     200/  3/  6 1012.5R
$$

LMZ867-665-643>646-230100-
LAKE MICHIGAN

STATION/POSITION TIME  TEMP    WIND        PRES    WAVE
                       AIR SEA DIR/SP/G            HT/PER
                 (UTC) (F)     (DEG/KT/KT) (MB)    (FT/S)
S GREEN BAY BUOY 0000   51 58  260/ 10/ 12 1016.3
N MID



USA.gov is the U.S. government's official web portal to all federal, state and local government web resources and services.